Weather History for Palestine, TX

Change the Weather History Date:

Tuesday, September 24, 2013

  Actual Average (KTYR) Record (KTYR)
Temperature  
Mean Temperature 78 °F 74 °F  
Max Temperature 92 °F 84 °F 100 °F (1939)
Min Temperature 64 °F 63 °F 44 °F (1989)
Degree Days  
Heating Degree Days 0 0  
Month to date heating degree days 0  
Since 1 July heating degree days 0  
Cooling Degree Days 13 9  
Month to date cooling degree days 294  
Year to date cooling degree days 2216  
Growing Degree Days 28 (Base 50)    
Moisture  
Dew Point 61 °F    
Average Humidity 63    
Maximum Humidity 90    
Minimum Humidity 26    
Precipitation  
Precipitation 0.00 in 0.10 in 2.63 in (1941)
Month to date precipitation 2.72  
Year to date precipitation 31.98  
Snow  
Snow 0.00 in - - ()
Month to date snowfall  
Since 1 July snowfall  
Since 1 September snowfall  
Snow Depth -    
Sea Level Pressure  
Sea Level Pressure 29.88 in    
Wind  
Wind Speed 3 mph (NNW)    
Max Wind Speed 13 mph    
Max Gust Speed 18 mph    
Visibility 10 miles    
Events      
T = Trace of Precipitation, MM = Missing Value Source: NWS Daily Summary

Daily Weather History Graph

Daily Weather History Graph

Search for Another Location

Airport:

Trip Planner

Search our weather history database for the weather conditions in past years. The results will help you decide how hot, cold, wet, or windy it might be!

Date:

Astronomy

Sep. 24, 2013 Rise Set
Actual Time 7:12 AM CDT 7:16 PM CDT
Civil Twilight 6:48 AM CDT 7:40 PM CDT
Nautical Twilight 6:19 AM CDT 8:09 PM CDT
Astronomical Twilight 5:51 AM CDT 8:37 PM CDT
Moon 10:53 PM CDT (9/24) 12:09 PM CDT (9/24)
Length of Visible Light 12h 52m
Length of Day
12h 04m
Waning Gibbous, 73% of the Moon is Illuminated
Sep 24
Waning Gibbous
Sep 26
Last Quarter
Oct 4
New
Oct 11
First Quarter
Oct 18
Full

Hourly Weather History & Observations

Time (CDT) Temp. Heat Index Dew Point Humidity Pressure Visibility Wind Dir Wind Speed Gust Speed Precip Events Conditions
12:15 AM 71.2 °F - 65.8 °F 83% 29.86 in 10.0 mi Calm Calm - N/A   Scattered Clouds
12:35 AM 70.3 °F - 66.0 °F 86% 29.87 in 10.0 mi North 3.5 mph - N/A   Mostly Cloudy
12:55 AM 70.2 °F - 66.6 °F 88% 29.87 in 10.0 mi Calm Calm - N/A   Mostly Cloudy
1:15 AM 70.3 °F - 65.7 °F 85% 29.86 in 10.0 mi Calm Calm - N/A   Scattered Clouds
1:35 AM 69.4 °F - 65.1 °F 86% 29.87 in 10.0 mi Calm Calm - N/A   Clear
1:55 AM 71.2 °F - 64.0 °F 78% 29.87 in 10.0 mi Calm Calm - N/A   Clear
2:15 AM 69.8 °F - 63.9 °F 81% 29.87 in 10.0 mi Calm Calm - N/A   Scattered Clouds
2:35 AM 67.5 °F - 64.0 °F 89% 29.87 in 10.0 mi Calm Calm - N/A   Scattered Clouds
2:55 AM 67.6 °F - 63.9 °F 88% 29.87 in 10.0 mi Calm Calm - N/A   Clear
3:15 AM 66.7 °F - 63.3 °F 89% 29.87 in 10.0 mi Calm Calm - N/A   Clear
3:35 AM 66.7 °F - 63.5 °F 89% 29.87 in 10.0 mi Calm Calm - N/A   Clear
3:55 AM 69.3 °F - 62.1 °F 78% 29.87 in 10.0 mi Calm Calm - N/A   Clear
4:15 AM 66.0 °F - 62.1 °F 87% 29.87 in 10.0 mi Calm Calm - N/A   Clear
4:35 AM 66.2 °F - 62.1 °F 86% 29.87 in 10.0 mi Calm Calm - N/A   Clear
4:55 AM 65.5 °F - 62.2 °F 89% 29.87 in 10.0 mi Calm Calm - N/A   Clear
5:15 AM 66.6 °F - 61.9 °F 85% 29.87 in 10.0 mi Calm Calm - N/A   Clear
5:35 AM 66.4 °F - 61.9 °F 85% 29.87 in 10.0 mi Calm Calm - N/A   Clear
5:55 AM 65.5 °F - 61.2 °F 86% 29.88 in 10.0 mi North 3.5 mph - N/A   Clear
6:15 AM 64.6 °F - 61.2 °F 89% 29.88 in 10.0 mi NNW 4.6 mph - N/A   Clear
6:35 AM 64.4 °F - 61.3 °F 90% 29.89 in 10.0 mi NNW 5.8 mph - N/A   Clear
6:55 AM 64.4 °F - 61.3 °F 90% 29.89 in 10.0 mi Calm Calm - N/A   Clear
7:15 AM 64.4 °F - 61.0 °F 89% 29.89 in 10.0 mi North 3.5 mph - N/A   Clear
7:35 AM 64.0 °F - 60.8 °F 89% 29.90 in 10.0 mi Calm Calm - N/A   Clear
7:55 AM 64.4 °F - 61.5 °F 90% 29.90 in 10.0 mi Calm Calm - N/A   Clear
8:15 AM 66.6 °F - 63.7 °F 90% 29.90 in 10.0 mi Calm Calm - N/A   Clear
8:35 AM 68.4 °F - 63.9 °F 85% 29.90 in 10.0 mi Calm Calm - N/A   Clear
8:55 AM 70.9 °F - 64.6 °F 80% 29.90 in 10.0 mi Calm Calm - N/A   Clear
9:15 AM 73.8 °F - 65.3 °F 75% 29.91 in 10.0 mi Calm Calm - N/A   Clear
9:35 AM 76.8 °F - 64.9 °F 67% 29.92 in 10.0 mi NNW 3.5 mph - N/A   Clear
9:55 AM 79.2 °F - 64.9 °F 62% 29.92 in 10.0 mi WNW 4.6 mph - N/A   Clear
10:15 AM 80.6 °F 82.4 °F 65.3 °F 59% 29.92 in 10.0 mi NW 4.6 mph - N/A   Clear
10:35 AM 82.4 °F 84.1 °F 64.6 °F 55% 29.92 in 10.0 mi WNW 6.9 mph - N/A   Clear
10:55 AM 83.3 °F 84.8 °F 64.8 °F 53% 29.93 in 10.0 mi NW 9.2 mph - N/A   Clear
11:15 AM 84.4 °F 85.9 °F 64.2 °F 51% 29.93 in 10.0 mi NW 8.1 mph - N/A   Clear
11:35 AM 85.1 °F 86.1 °F 63.5 °F 48% 29.93 in 10.0 mi WNW 9.2 mph - N/A   Clear
11:55 AM 86.2 °F 86.8 °F 62.4 °F 45% 29.92 in 10.0 mi NW 9.2 mph - N/A   Clear
12:15 PM 87.3 °F 87.0 °F 60.3 °F 40% 29.92 in 10.0 mi NNW 11.5 mph - N/A   Clear
12:35 PM 88.5 °F 88.1 °F 59.7 °F 38% 29.92 in 10.0 mi North 8.1 mph 16.1 mph N/A   Clear
12:55 PM 89.1 °F 88.2 °F 58.6 °F 36% 29.91 in 10.0 mi North 11.5 mph 16.1 mph N/A   Clear
1:15 PM 89.6 °F 88.4 °F 57.6 °F 34% 29.90 in 10.0 mi NE 12.7 mph 17.3 mph N/A   Clear
1:35 PM 90.0 °F 88.6 °F 57.0 °F 33% 29.90 in 10.0 mi North 9.2 mph 16.1 mph N/A   Clear
1:55 PM 91.4 °F 89.6 °F 55.9 °F 30% 29.89 in 10.0 mi NNE 9.2 mph 17.3 mph N/A   Clear
2:15 PM 91.4 °F 89.9 °F 57.0 °F 31% 29.88 in 10.0 mi North 10.4 mph - N/A   Clear
2:35 PM 91.9 °F 90.0 °F 55.6 °F 29% 29.88 in 10.0 mi NNW 9.2 mph 16.1 mph N/A   Clear
2:55 PM 91.2 °F 89.1 °F 55.0 °F 29% 29.87 in 10.0 mi North 8.1 mph 18.4 mph N/A   Clear
3:15 PM 91.9 °F 90.3 °F 56.5 °F 30% 29.87 in 10.0 mi North 9.2 mph - N/A   Clear
3:35 PM 91.8 °F 90.0 °F 55.9 °F 30% 29.86 in 10.0 mi North 5.8 mph - N/A   Clear
3:55 PM 92.3 °F 90.5 °F 55.4 °F 29% 29.86 in 10.0 mi NNW 8.1 mph - N/A   Clear
4:15 PM 91.6 °F 89.6 °F 54.7 °F 29% 29.86 in 10.0 mi NNE 8.1 mph - N/A   Clear
4:35 PM 91.8 °F 89.5 °F 54.5 °F 28% 29.85 in 10.0 mi North 9.2 mph - N/A   Clear
4:55 PM 92.1 °F 89.7 °F 54.0 °F 27% 29.85 in 10.0 mi NNW 10.4 mph - N/A   Clear
5:15 PM 91.4 °F - 52.3 °F 26% 29.85 in 10.0 mi North 9.2 mph - N/A   Clear
5:35 PM 91.0 °F 88.5 °F 53.1 °F 27% 29.85 in 10.0 mi NNW 9.2 mph - N/A   Clear
5:55 PM 90.5 °F 88.3 °F 53.8 °F 29% 29.85 in 10.0 mi North 8.1 mph - N/A   Clear
6:15 PM 89.6 °F 87.3 °F 53.8 °F 29% 29.85 in 10.0 mi North 5.8 mph - N/A   Clear
6:35 PM 88.5 °F 86.7 °F 55.0 °F 32% 29.85 in 10.0 mi North 3.5 mph - N/A   Clear
6:55 PM 86.9 °F 85.5 °F 56.3 °F 35% 29.85 in 10.0 mi North 4.6 mph - N/A   Clear
7:15 PM 84.6 °F 83.7 °F 57.0 °F 39% 29.85 in 10.0 mi Calm Calm - N/A   Clear
7:35 PM 82.8 °F 82.5 °F 57.9 °F 43% 29.85 in 10.0 mi Calm Calm - N/A   Clear
7:55 PM 80.1 °F 80.7 °F 59.0 °F 48% 29.85 in 10.0 mi Calm Calm - N/A   Clear
8:15 PM 77.0 °F - 62.2 °F 60% 29.85 in 10.0 mi Calm Calm - N/A   Clear
8:35 PM 76.6 °F - 60.4 °F 57% 29.86 in 10.0 mi Calm Calm - N/A   Clear
8:55 PM 75.0 °F - 60.4 °F 60% 29.86 in 10.0 mi Calm Calm - N/A   Clear
9:15 PM 73.0 °F - 61.9 °F 68% 29.87 in 10.0 mi Calm Calm - N/A   Clear
9:35 PM 70.7 °F - 63.1 °F 77% 29.87 in 10.0 mi Calm Calm - N/A   Clear
9:55 PM 69.3 °F - 63.3 °F 81% 29.88 in 10.0 mi Calm Calm - N/A   Clear
10:15 PM 70.0 °F - 61.9 °F 75% 29.88 in 10.0 mi Calm Calm - N/A   Clear
10:35 PM 69.1 °F - 62.6 °F 80% 29.88 in 10.0 mi Calm Calm - N/A   Clear
10:55 PM 68.0 °F - 61.0 °F 78% 29.88 in 10.0 mi Calm Calm - N/A   Clear
11:15 PM 67.5 °F - 62.2 °F 83% 29.88 in 10.0 mi West 3.5 mph - N/A   Clear
11:35 PM 66.7 °F - 61.7 °F 84% 29.88 in 10.0 mi Calm Calm - N/A   Clear
11:55 PM 65.5 °F - 61.0 °F 85% 29.88 in 10.0 mi Calm Calm - N/A   Clear